Tracking 31023 objects as of 20-Jul-2025
HD Live streaming from Space Station
objects crossing your sky now

BRAZILSAT 1

Track BRAZILSAT 1 now!
BRAZILSAT 1 is classified as:


NORAD ID: 15561
Int'l Code: 1985-015B
Perigee: 35,990.4 km
Apogee: 36,003.5 km
Inclination: 14.3 °
Period: 1,446.5 minutes
Semi major axis: 42367 km
RCS: 2.7147 m2 (large)
Launch date: February 8, 1985
Source: Brazil (BRAZ)
Launch site: FRENCH GUIANA (FRGUI)
Your satellite tracking list
Your tracking list is empty




NASA's NSSDC Master Catalog

Two Line Element Set (TLE):
1 15561U 85015B   25200.76155267 -.00000289  00000-0  00000-0 0  9995
2 15561  14.3017 347.3455 0001543 321.5899 219.4860  0.99551283 43039
Source of the keplerian elements: AFSPC